Location: Las Navas
(40.6024°N, 4.3345°W)
Time: 09:19:32
(UTC+00:00)

Cosmos 2369 Rocket - Pass Details

Date: 03 April 2020
Orbit: 829 x 852 km, 71.0° (Epoch: 29 May)

Event Time Altitude Azimuth Distance (km) Brightness Sun altitude
Rises 20:15:04 0° 335° (NNW) 3,421 6.1 -17.3°
Reaches altitude 10° 20:17:32 10° 335° (NNW) 2,479 5.3 -17.7°
Maximum altitude 20:23:13 83° 249° (WSW) 855 2.2 -18.7°
Enters shadow 20:26:55 23° 162° (SSE) 1,732 3.4 -19.3°
